AirNav   Everest Fuels
 
 408 users online  

KTZT Belle Plaine Municipal Airport
Belle Plaine, Iowa, USA

GOING TO BELLE PLAINE?


FAA INFORMATION EFFECTIVE 10 SEPTEMBER 2020

Location

FAA Identifier: TZT
Lat/Long: 41-52-43.6000N 092-17-04.3000W
41-52.726667N 092-17.071667W
41.8787778,-92.2845278
(estimated)
Elevation: 771 ft. / 235.0 m (surveyed)
Variation: 00E (2010)
From city: 1 mile SW of BELLE PLAINE, IA
Time zone: UTC -5 (UTC -6 during Standard Time)
Zip code: 52208

Airport Operations

Airport use: Open to the public
Activation date: 09/1992
Control tower: no
ARTCC: CHICAGO CENTER
FSS: FORT DODGE FLIGHT SERVICE STATION
NOTAMs facility: FOD (NOTAM-D service available)
Attendance: UNATNDD
Wind indicator: lighted
Segmented circle: no
Lights: ACTVT MIRL RY 18/36 - CTAF.
Beacon: white-green (lighted land airport)
Operates sunset to sunrise.

Airport Communications

CTAF: 122.9
CEDAR RAPIDS APPROACH: 119.7
CEDAR RAPIDS DEPARTURE: 119.7
  • APCH/DEP SVC PRVDD BY CHICAGO ARTCC ON FREQS 132.8/328.4 (CEDAR RAPIDS RCAG) WHEN CEDAR RAPIDS APCH CTL CLSD.

Nearby radio navigation aids

VOR radial/distance  VOR name  Freq  Var
CIDr264/22.3CEDAR RAPIDS VOR/DME114.1005E
JWJr116/31.1ELMWOOD VOR/DME109.4001E
IOWr301/37.0IOWA CITY VOR/DME116.2005E
TNUr078/37.3NEWTON VOR/DME112.5003E

 
NDB name  Hdg/Dist  Freq  Var  ID
WAPSIE203/37.520600EIIB .. .. -...

Airport Services

Fuel available: 100LL
Parking: tiedowns
Airframe service: NONE
Powerplant service: NONE

Runway Information

Runway 18/36

Dimensions: 4001 x 75 ft. / 1220 x 23 m
Surface: concrete, in good condition
Runway edge lights: medium intensity
RUNWAY 18  RUNWAY 36
Latitude: 41-53.056327N41-52.398465N
Longitude: 092-17.094012W092-17.049728W
Elevation: 771.0 ft.768.8 ft.
Traffic pattern: leftleft
Runway heading: 177357
Markings: nonprecision, in fair conditionnonprecision, in fair condition
Touchdown point: yes, no lightsyes, no lights
Obstructions: 33 ft. tree, 900 ft. from runway, 6 ft. right of centerline, 21:1 slope to clear80 ft. tree, 2589 ft. from runway, 20 ft. left of centerline, 29:1 slope to clear

Airport Ownership and Management from official FAA records

Ownership: Publicly-owned
Owner: CITY OF BELLE PLAINE
8TH AVE & 13TH ST.
BELLE PLAINE, IA 52208
Phone 319-444-2200
Manager: BRUCE GAPSTUR
1207 - 8TH AVENUE
BELLE PLAINE, IA 52208
Phone 319-350-7136
AIRPORT COMMISSIONER

Airport Operational Statistics

Aircraft based on the field: 10
Single engine airplanes: 10
    
Aircraft operations: avg 38/week *
58% local general aviation
42% transient general aviation
* for 12-month period ending 14 September 2017

Additional Remarks

TREES ON BOTH SIDES OF APPROACH TO RY 35 PENETRATE THE RY TRANSITIONAL SFC.
WILDLIFE ON AND BIRDS INVOF ARPT.
FOR CD CTC CHICAGO ARTCC AT 630-906-8921.

Instrument Procedures

NOTE: All procedures below are presented as PDF files. If you need a reader for these files, you should download the free Adobe Reader.

NOT FOR NAVIGATION. Please procure official charts for flight.
FAA instrument procedures published for use from 10 September 2020 at 0901Z to 08 October 2020 at 0900z.

 
IAPs - Instrument Approach Procedures
RNAV (GPS) RWY 18   download (188KB)
RNAV (GPS) RWY 36   download (189KB)
VOR-A   download (171KB)
NOTE: Special Take-Off Minimums/Departure Procedures apply   download (158KB)

Other nearby airports with instrument procedures:

KGGI - Grinnell Regional Airport (23 nm SW)
KVTI - Vinton Veterans Memorial Airpark (23 nm NE)
KCID - The Eastern Iowa Airport (26 nm E)
KMIW - Marshalltown Municipal Airport (32 nm NW)
KTNU - Newton Municipal Airport-Earl Johnson Field (35 nm W)
 
Loc | Ops | Rwys | IFR | FBO | Links
Com | Nav | Svcs | Stats | Notes
Area around KTZT (Belle Plaine Municipal Airport)
 
Road maps at: MapQuest Bing Google
 
Aerial photo
WARNING: Photo may not be current or correct
Aerial photo of KTZT (Belle Plaine Municipal Airport)
Do you have a better or more recent aerial photo of Belle Plaine Municipal Airport that you would like to share? If so, please send us your photo.

 
Sectional chart

 
Airport distance calculator
Flying to Belle Plaine Municipal Airport? Find the distance to fly.

From to KTZT

Sunrise and sunset
Times for 30-Sep-2020
 Local
(UTC-5)
 Zulu
(UTC)
Morning civil twilight06:3911:39
Sunrise07:0712:07
Sunset18:5123:51
Evening civil twilight19:1800:18

Current date and time
Zulu (UTC)  30-Sep-2020 07:33:20
Local (UTC-5)  30-Sep-2020 02:33:20
 
METAR
KGGI 
23nm SW 
300715Z AUTO 25004KT 10SM SCT110 15/09 A2970 RMK AO2 T01490087
KVTI 
23nm NE 
300715Z AUTO 24003KT 10SM CLR 12/08 A2966 RMK AO2 T01180084
KCID 
25nm E 
300652Z AUTO 27006KT 10SM CLR 09/07 A2966 RMK AO2 SLP045 T00940067
KMIW 
32nm NW 
300653Z AUTO 25004KT 10SM BKN110 11/08 A2968 RMK AO2 SLP049 T01060078
KTNU 
35nm W 
300715Z AUTO 25005KT 10SM OVC110 12/08 A2969 RMK A01
KIOW 
36nm SE 
300652Z AUTO 27008KT 10SM CLR 11/08 A2968 RMK AO2 SLP052 T01060078
KIIB 
38nm NE 
300715Z AUTO 25005KT 10SM BKN110 09/07 A2964 RMK AO2 T00930071
KOOA 
40nm S 
300715Z AUTO 26006KT 10SM CLR 11/07 A2972 RMK AO2 T01100074
KALO 
41nm N 
300654Z AUTO 00000KT 10SM OVC110 09/07 A2965 RMK AO2 SLP040 T00940067
KPEA 
41nm SW 
300715Z AUTO 25006KT 10SM CLR 13/07 A2973 RMK AO2 T01310070
TAF
KCID 
25nm E 
300529Z 3006/0106 24008KT P6SM FEW070 BKN250 FM301000 27009KT P6SM BKN100 FM301200 28012KT P6SM VCSH BKN080 WS020/30040KT FM301400 28013KT P6SM BKN100 FM301600 30020G32KT P6SM SCT035 FM010300 30007KT P6SM FEW100
NOTAMs
Click for the latest NOTAMs
NOTAMs are issued by the DoD/FAA and will open in a separate window not controlled by AirNav.

 

 
 

FBO, Fuel Providers, and Aircraft Ground Support

  
 Business Name 
 
 Contact 
 
 Services / Description 
 
Fuel Prices
 
Comments
  
City of Belle Plaine 319-350-7136
no information available

If you are affiliated with City of Belle Plaine and would like to show here your services, contact info, web link, logo, and more, click here
100LL
SS $3.70 
 Updated 16-Sep-2020
 
   1 read write
SS=Self service
Update Fuel Prices
 

Would you like to see your business listed on this page?

 If your business provides an interesting product or service to pilots, flight crews, aircraft, or users of the Belle Plaine Municipal Airport, you should consider listing it here.  To start the listing process, click on the button below
 
Add a business
 

Other Pages about Belle Plaine Municipal Airport

Page from the Iowa Airport Directory
 
Update a link
 
Copyright © AirNav, LLC. All rights reserved. Privacy Policy  Contact